Regional Weather Roundup
Issued by NWS Newport/Morehead, NC

Current Version | Previous Version | Text Only | Print | Product List | Glossary On
Versions: 1 2 3 4 5 6 7 8 9 10 11 12 13 14 15 16 17 18 19 20 21 22 23 24 25 26 27 28 29 30 31 32 33 34 35 36 37 38 39 40 41 42 43 44 45 46 47 48 49 50
640
ASUS42 KMHX 061025
RWRMHX
WEATHER ROUNDUP FOR EASTERN NORTH CAROLINA
NATIONAL WEATHER SERVICE NEWPORT/MOREHEAD CITY NC
600 AM EDT FRI MAY 06 2016

NOTE: "FAIR" INDICATES FEW OR NO CLOUDS BELOW 12,000 FEET
WITH NO SIGNIFICANT WEATHER AND/OR OBSTRUCTIONS TO VISIBILITY

NCZ015>017-031-032-045>047-102-103-061100-
NORTH COAST

CITY           SKY/WX    TMP DP  RH WIND       PRES   REMARKS
EDENTON        CLOUDY    52  52 100 CALM      29.65R
ELIZABETH CITY CLOUDY    50  49  96 W6        29.64S
KITTY HAWK     CLOUDY    49  49  97 CALM      29.63R
MANTEO         CLOUDY    51  50  95 CALM      29.65R

$$

NCZ045>047-081-094-103-104-061100-
CENTRAL COAST

CITY           SKY/WX    TMP DP  RH WIND       PRES   REMARKS
FRISCO         MOCLDY    50  48  93 CALM      29.64S
SWANQUARTER    NOT AVBL

$$

NCZ095-097-098-100-101-061100-
SOUTHERN COAST

CITY           SKY/WX    TMP DP  RH WIND       PRES   REMARKS
BEAUFORT       PTCLDY    51  47  86 W10       29.66R
CEDAR ISLAND   NOT AVBL
JACKSONVILLE   CLOUDY    48  46  93 SW5       29.66S
PINEY ISLAND   SUNNY    N/A N/A N/A SW7       29.65R
WILMINGTON     CLOUDY    49  45  86 W10       29.69R


$$

NCZ011>013-027>030-043-044-078>080-089-090>093-098-061100-
COASTAL PLAIN

CITY           SKY/WX    TMP DP  RH WIND       PRES   REMARKS
AHOSKIE        CLOUDY    50  49  96 CALM      29.65S
CLINTON        CLOUDY    50  50 100 W5        29.69R FOG
ELIZABETHTOWN  CLOUDY    50  47  90 W6        29.70R
GOLDSBORO      NOT AVBL
GREENVILLE     LGT RAIN  52  52 100 CALM      29.67S
HAVELOCK       CLOUDY    51  49  92 SW7       29.66S
KENANSVILLE    CLOUDY    50  49  97 CALM      29.68R
KINSTON        DRIZZLE   51  51  99 SW8       29.65S
NEW BERN       CLOUDY    51  48  89 SW7       29.66S
RICHLANDS      CLOUDY    50  49  96 SW6       29.67R
ROCKY MOUNT    LGT RAIN  51  50  96 NW7       29.65R
WASHINGTON     CLOUDY    51  49  94 SW7       29.64R
WHITEVILLE     NOT AVBL

$$

AMZ130-135-150-152-154-156-158-170-250-252-270-ANZ085-086-088-633-658-670-061100-
MARINE OBSERVATIONS

STATION/POSITION TIME  TEMP    WIND        PRES    WAVE   SWELL
                       AIR SEA DIR/SP/G            HT/PER HT/PER
                 (UTC) (F)     (DEG/KT/KT) (MB)    (FT/S) (FT/S)
CHESAPEAKE LIGHT 1000   50     360/  8/  9 1004.0
64 E VA BEACH    0950   49 51  300/ 10/ 12 1002.4    7/ 8   7/ 8
DUCK             1000   53 59  310/  7/  7 1003.1
2 E DUCK         0911      60                N/A     5/ 8
OREGON INLET     1000   52 60  360/  3/  4 1003.6
13E OREGON INLT  1000      55                N/A     6/ 8   7/ 8
HATTERAS CG      1000   56 66  200/  2/  3 1003.3
DIAMOND BUOY     0950   57 77  340/  6/ 10 1003.9    5/ 8   5/ 8
CAPE LOOKOUT     1000   54     270/ 13/ 15 1003.8
BEAUFORT LAB     1000   52 66  290/  5/  9 1003.5
30 SE NEW RVR IN 0925      72                N/A     5/ 7
27 SE WRIGHTSVLE 1008   56 72  280/ 14/ 21 1004.4
5 SE WRIGHTSVLE  0908   53 69  290/ 14/ 17 1005.5
225 S CAPE HAT   0950   68 73  290/ 16/ 19 1006.0    8/ 8   7/ 8
41 SE CHARLESTON 0950   58 72  310/ 19/ 23 1006.8    5/ 6

$$




USA.gov is the U.S. government's official web portal to all federal, state and local government web resources and services.